Back to catalog

IRIDIUM 162

AliveCommunicationsPO
NORAD 43482·PAYLOAD·🇺🇸 United States

Launched May 22, 2018 from Vandenberg Space Force Base

Loading…

Next Passes (next 24 hours)

TLE

FreshSource: CelesTrak SupGP

Epoch: Sep 14, 2026, 22:13 UTC

1 43482C 18047G   26257.92604167  .00002799  00000+0  83336-3 0  2577
2 43482  86.4468  50.8050 0002230  92.6738 163.2284 14.43278250    12

Track IRIDIUM 162 in real time with AllMySat

Download on the App Store